Weather in Siya

Russia / Arkhangel'skaya Oblast'     64°01′25″N   43°10′57″E
temp.,
°C
wind,
m/s
gust,
m/s
humid.,
%
clouds,
%
prec.,
mm/h
press.,
hPa
HPBL,
m
14 june, mon
mon1400:00+17s3108191 0.0 1005453
03:00+15s310922 0.0 1005307
06:00+18sw36735 0.0 1005471
09:00+21w5759100 0.0 10051189
12:00+13nw4886100 0.4 1008494
15:00+14wnw368192 1.8 1010857
18:00+18wnw355311 0.1 10101273
21:00+16n1161100 0.1 101110
15 june, tue
tue1500:00+12sw227382 0.0 101211
03:00+10sw2463100 0.0 101264
06:00+15ssw37565 0.0 1012342
09:00+20sw5835100 0.0 10111538
12:00+22ssw6830100 0.0 10081863
15:00+24ssw61027100 0.0 10062225
18:00+23ssw51032100 0.0 10052327
21:00+19ssw31050100 0.0 1004324
16 june, wed
wed1600:00+15wsw3964100 0.0 1004318
03:00+15wnw366799 0.0 1006483
06:00+15wnw3554100 0.0 1007701
09:00+17w2446100 0.0 10071470
12:00+18w2439100 0.0 10072282
15:00+16nnw5656100 0.3 10081135
18:00+14n256728 1.1 1010521
21:00+12sw23775 1.2 101170
17 june, thu
thu1700:00+8wnw2786100 0.0 1012144
03:00+7w25835 0.0 1014103
06:00+12wnw36597 0.0 1015328
09:00+16wnw464319 0.0 10161758
12:00+17wnw473579 0.0 10172412
15:00+18nw68285 0.0 10192327
18:00+18nw57290 0.0 10201783
21:00+13w11475 0.0 102110
18 june, fri
fri1800:00+10ssw35525 0.0 102184
03:00+12ssw41448100 0.0 1019430
06:00+15sw51352100 0.0 1017464
09:00+21w6947100 0.0 10161111
12:00+24w6935100 0.0 10161960
15:00+25w573196 0.0 10162207
18:00+25wnw38345 0.0 10162100
21:00+19wsw225469 0.0 101512